Flag for U.S.A. Weather past 2 weeks in Annapolis, Maryland, U.S.A.

Now
56 °F

Sunny.


Feels Like: 54 °F
Forecast: 53 / 69 °F
Wind: 9 mph from North

Location: Annapolis - United States Naval Academy

Current Time: Sep 23, 2014 at 8:42:31 AM

Latest Report: Sep 23, 2014 at 7:54 AM


Visibility: 10 mi

Pressure: 30.32 "Hg

Humidity: 77%

Dew point: 49 °F

Location of AnnapolisLocation

Historic Weather in Annapolis — Graph

°F

Annapolis temperature yesterday

Maximum temperature yesterday: 73 °F (at 12:54 AM)
Minimum temperature yesterday: 61 °F (at 11:54 PM)
Average temperature yesterday: 67 °F

Past Weeks' High & Low Weather Summary

 TemperatureHumidityPressure
High87 °F (Sep 11, 2:54 PM)94% (Sep 18, 10:54 PM)30.32 "Hg (Sep 18, 10:54 PM)
Low52 °F (Sep 23, 6:54 AM)42% (Sep 22, 3:54 PM)29.65 "Hg (Sep 21, 5:54 PM)
Average69 °F71%30.08 "Hg
* Reported Sep 8 7:54 AM — Sep 23 7:54 AM, Annapolis, Weather by CustomWeather, © 2014

Note: Actual official high and low records may vary slightly from our data, if they occured in-between our weather recording intervals... More about our weather records

Advertising

Annapolis weather history for previous 24 hours

 ConditionsComfort  
Time TempWeatherWind HumidityBarometerVisibility
7:54 AM
Sep 23
56 °FSunny.9 mph77%30.32 "Hg10 mi
6:54 AM52 °FClear.N/A83%30.31 "Hg10 mi
5:54 AM55 °FClear.N/A74%30.29 "Hg10 mi
4:54 AM56 °FClear.N/A70%30.28 "Hg10 mi
3:54 AM57 °FClear.N/A69%30.26 "Hg10 mi
2:54 AM59 °FClear.N/A62%30.24 "Hg10 mi
1:54 AM60 °FClear.N/A62%30.23 "Hg10 mi
12:54 AM61 °FClear.N/A58%30.23 "Hg10 mi
11:54 PM
Sep 22
61 °FClear.N/A60%30.23 "Hg10 mi
10:54 PM62 °FClear.N/A56%30.22 "Hg10 mi
9:54 PM63 °FClear.N/A58%30.19 "Hg10 mi
8:54 PM64 °FClear.N/A54%30.16 "Hg10 mi
7:54 PM65 °FSunny.N/A52%30.12 "Hg10 mi
6:54 PM66 °FSunny.N/A50%30.08 "Hg10 mi
5:54 PM69 °FSunny.N/A45%30.06 "Hg10 mi
4:54 PM70 °FSunny.N/A46%30.04 "Hg10 mi
3:54 PM71 °FSunny.13 mph42%30.02 "Hg10 mi
2:54 PM70 °FScattered clouds.12 mph47%30.01 "Hg10 mi
1:54 PM70 °FPassing clouds.10 mph47%30.01 "Hg10 mi
12:54 PM68 °FPassing clouds.13 mph51%30.02 "Hg10 mi
11:54 AM67 °FPartly sunny.15 mph51%30.01 "Hg10 mi
10:54 AM67 °FSunny.16 mph53%30.00 "Hg10 mi
9:54 AM67 °FSunny.13 mph55%29.98 "Hg10 mi
8:54 AM65 °FSunny.8 mph63%29.96 "Hg10 mi
Weather by CustomWeather, © 2014

See weather overviewHow to use our weather pages